www.pogodaiklimat.ru
ПОГОДА Гибралтаре
Время
(UTC), дата
19 14.10
20 14.10
21 14.10
22 14.10
23 14.10
00 15.10
01 15.10
02 15.10
03 15.10
04 15.10
05 15.10
06 15.10
07 15.10
08 15.10
09 15.10
10 15.10
11 15.10
12 15.10
13 15.10
14 15.10
15 15.10
16 15.10
17 15.10
18 15.10
19 15.10
20 15.10
21 15.10
22 15.10
23 15.10
00 16.10
01 16.10
02 16.10
03 16.10
04 16.10
05 16.10
06 16.10
07 16.10
08 16.10
09 16.10
10 16.10
11 16.10
12 16.10
13 16.10
14 16.10
15 16.10
16 16.10
17 16.10
18 16.10
19 16.10
20 16.10
21 16.10
22 16.10
23 16.10
00 17.10
01 17.10
02 17.10
03 17.10
04 17.10
05 17.10
06 17.10
07 17.10
08 17.10
09 17.10
10 17.10
11 17.10
12 17.10
13 17.10
14 17.10
15 17.10
16 17.10
17 17.10
18 17.10
19 17.10
20 17.10
21 17.10
22 17.10
23 17.10
00 18.10
01 18.10
02 18.10
03 18.10
04 18.10
05 18.10
06 18.10
09 18.10
10 18.10
11 18.10
12 18.10
13 18.10
14 18.10
15 18.10
16 18.10
17 18.10
18 18.10
20 18.10
21 18.10
22 18.10
23 18.10
00 19.10
01 19.10
02 19.10
03 19.10
04 19.10
05 19.10
06 19.10
07 19.10
08 19.10
09 19.10
10 19.10
11 19.10
12 19.10
13 19.10
14 19.10
15 19.10
16 19.10
17 19.10
18 19.10
19 19.10
20 19.10
21 19.10
22 19.10
23 19.10
00 20.10
01 20.10
02 20.10
03 20.10
04 20.10
05 20.10
06 20.10
07 20.10
08 20.10
09 20.10
10 20.10
11 20.10
12 20.10
13 20.10
14 20.10
15 20.10
16 20.10
17 20.10
18 20.10
19 20.10
20 20.10
21 20.10
22 20.10
23 20.10
00 21.10
01 21.10
02 21.10
03 21.10
04 21.10
05 21.10
06 21.10
07 21.10
08 21.10
09 21.10
10 21.10
11 21.10
12 21.10
13 21.10
14 21.10
15 21.10
16 21.10
17 21.10
18 21.10
19 21.10
20 21.10
Ветер
(напр.,м/с)
Видим. Явления Облачность Т
(С)
Тd
(С)
f
(%)
Тe
(С)
Тes
(С)
Комфортность P
(гПа)
Po
(гПа)
Тmin
(С)
Tmax
(С)
R
(мм)
R24
(мм)
S
(см)
З 5 70 км 8/8 900 м
[Cu Sc]
+20.3 +15.7 75 +23 +23 комфорт 1019.8 1019.2
З 5 70 км 1/1 1000 м
[Cu Sc]
+20.2 +15.1 72 +23 +23 комфорт 1020.1 1019.5
З 6 18 км н/о +20.3 +15.0 72 +23 +23 комфорт 1020.5 1019.9
ЮЗ 4 18 км н/о +18.5 +15.5 83 +19 +19 тепло 1020.9 1020.3
З 5 17 км н/о +18.9 +15.6 81 +20 +20 тепло 1020.7 1020.1
З 6 18 км н/о +18.8 +15.4 81 +19 +19 тепло 1020.8 1020.2
З 8 17 км н/о +18.3 +14.5 79 +18 +18 тепло 1020.6 1020.0
З 7 17 км н/о +17.7 +14.0 79 +17 +17 тепло 1020.8 1020.2
З 7 18 км н/о +16.9 +13.0 78 +16 +16 тепло 1020.8 1020.2
З 4 18 км н/о +16.5 +12.6 78 +16 +16 тепло 1020.9 1020.3
З 3 30 км ясно +16.8 +12.5 76 +17 +17 тепло 1020.9 1020.3
З 3 30 км 1/0
[Ci fib]
+15.9 +12.4 80 +16 +16 тепло 1021.0 1020.4 +15.6
З 3 40 км 1/0
[Ci fib]
+15.2 +11.4 78 +15 +15 тепло 1021.0 1020.4
З 3 50 км 1/0
[Ci fib]
+15.8 +10.9 73 +16 +17 тепло 1021.5 1020.9
З 4 50 км 1/0
[Ci fib]
+18.0 +10.7 62 +18 +20 тепло 1022.1 1021.5
З 6 50 км 1/0
[Ci fib]
+19.7 +7.6 45 +20 +23 тепло 1022.1 1021.5
З 5 50 км 3/0
[Ci fib]
+20.7 +4.1 34 +21 +26 комфорт 1022.0 1021.4
З 4 60 км 5/0
[Ci sp]
+22.1 +4.6 32 +22 +29 комфорт 1021.5 1020.9
ЮЗ 4 60 км 6/0
[Ci sp]
+22.6 +3.9 29 +23 +29 комфорт 1020.7 1020.1
Ю 4 60 км 8/0
[Ci sp]
+22.4 +8.5 41 +24 +28 комфорт 1020.1 1019.5
ЮЗ 5 60 км 8/0
[Ci sp]
+23.5 +7.9 37 +24 +27 комфорт 1019.6 1019.0
З 5 60 км 8/0
[Ci sp]
+22.8 +7.8 38 +24 +25 комфорт 1019.5 1018.9
З 5 60 км 8/0
[Ci sp]
+22.0 +8.8 43 +23 +24 комфорт 1019.7 1019.2
З 5 60 км 6/0
[Ci sp]
+21.2 +8.5 44 +22 +22 комфорт 1019.9 1019.3 +23.6
ЮЗ 5 19 км н/о +20.7 +5.1 36 +21 +21 комфорт 1020.3 1019.7
ЮЗ 5 20 км н/о +19.6 +4.0 36 +20 +20 тепло 1020.7 1020.1
ЮЗ 4 19 км н/о +18.8 +4.9 40 +19 +19 тепло 1021.1 1020.5
ЮЗ 4 20 км н/о +18.1 +6.5 47 +18 +18 тепло 1021.5 1020.9
ЮЗ 4 20 км н/о +17.0 +7.8 55 +17 +17 тепло 1021.7 1021.1
ЮЗ 4 21 км н/о +16.6 +7.2 54 +16 +16 тепло 1021.4 1020.8
З 4 21 км н/о +16.3 +7.7 57 +16 +16 тепло 1021.5 1020.9
З 3 22 км н/о +15.5 +6.2 54 +15 +15 тепло 1020.9 1020.3
ЮЗ 3 22 км н/о +15.5 +7.2 58 +15 +15 тепло 1020.4 1019.8
З 4 23 км н/о +15.3 +6.9 57 +15 +15 тепло 1020.5 1019.9
З 3 50 км ясно +14.8 +5.1 52 +14 +14 тепло 1020.5 1019.9
З 3 60 км 1/0
[Ci sp]
+14.3 +6.2 58 +13 +13 тепло 1020.6 1020.0 +13.8
З 3 70 км 1/0
[Ci sp]
+13.7 +6.9 63 +13 +13 тепло 1020.9 1020.3
З 3 70 км 1/0
[Ci fib]
+13.9 +7.1 64 +13 +14 тепло 1021.4 1020.8
З 2 70 км ясно +15.5 +6.7 56 +15 +19 тепло 1021.8 1021.2
З 1 70 км ясно +18.3 +8.8 54 +20 +27 тепло 1021.8 1021.2
В 2 60 км ясно +20.4 +8.1 45 +22 +31 комфорт 1021.8 1021.2
В 3 60 км ясно +20.9 +5.6 37 +22 +30 комфорт 1021.2 1020.6
В 3 60 км ясно +19.4 +12.1 63 +21 +29 комфорт 1020.3 1019.7
В 3 60 км ясно +20.7 +12.5 59 +23 +30 комфорт 1019.5 1018.9
В 3 60 км ясно +22.7 +10.1 45 +25 +30 комфорт 1018.9 1018.3
ЮЗ 3 60 км ясно +21.7 +6.3 37 +22 +25 комфорт 1018.5 1017.9
Ю 5 60 км ясно +21.1 +4.3 33 +21 +22 комфорт 1018.4 1017.8
Ю 4 60 км 1/0
[Ci fib]
+20.3 +6.5 41 +21 +21 комфорт 1018.4 1017.8 +22.8
Ю 5 60 км 1/0
[Ci fib]
+20.0 +8.2 47 +21 +21 комфорт 1018.8 1018.2
ЮЗ 4 16 км н/о +19.7 +10.1 54 +21 +21 комфорт 1019.3 1018.7
З 4 18 км н/о +19.0 +9.2 53 +20 +20 тепло 1019.7 1019.1
ЮЗ 4 18 км н/о +19.2 +10.1 56 +20 +20 тепло 1019.9 1019.3
З 5 20 км н/о +17.7 +10.8 64 +17 +17 тепло 1019.9 1019.3
З 4 19 км н/о +17.1 +10.7 66 +17 +17 тепло 1019.5 1018.9
З 4 20 км н/о +17.0 +9.5 61 +17 +17 тепло 1019.4 1018.8
З 4 19 км н/о +17.3 +10.1 63 +17 +17 тепло 1019.3 1018.7
ЮЗ 3 17 км н/о +16.5 +10.8 69 +16 +16 тепло 1018.9 1018.3
З 4 16 км н/о +15.8 +10.5 71 +15 +15 тепло 1018.9 1018.3
ЮЗ 3 50 км ясно +16.4 +8.5 60 +16 +16 тепло 1019.1 1018.5
ЮЗ 3 50 км 1/0
[Ci fib]
+16.5 +8.7 60 +16 +16 тепло 1019.4 1018.8 +15.4
ЮЗ 4 50 км 1/1 600 м
[Sc Ci fib]
+16.5 +9.8 65 +16 +16 тепло 1019.8 1019.2
З 3 50 км 1/1 660 м
[Sc Ci fib]
+17.1 +12.5 74 +17 +18 тепло 1020.6 1020.0
З 5 50 км 1/1 600 м
[Sc Ci fib]
+18.9 +14.3 75 +20 +21 тепло 1020.9 1020.3
З 6 50 км 1/1 600 м
[Sc diur, vesp Ci fib]
+20.0 +13.5 66 +22 +24 комфорт 1021.1 1020.5
З 7 50 км 1/0
[Ci fib]
+21.9 +12.9 57 +25 +27 комфорт 1020.8 1020.2
ЮЗ 4 50 км 4/0
[Ci fib]
+22.6 +12.1 51 +25 +32 комфорт 1020.3 1019.7
ЮЗ 4 50 км 9/0
[Ci fib]
+23.1 +12.9 53 +26 +31 жарко 1019.3 1018.8
Ю 6 60 км 8/0
[Ci fib]
+23.6 +12.5 50 +26 +29 жарко 1018.7 1018.1
ЮЗ 5 60 км 8/0
[Ci fib]
+23.5 +14.3 56 +26 +29 жарко 1018.2 1017.6
ЮЗ 5 60 км 4/0
[Ci fib]
+23.2 +13.4 54 +26 +28 жарко 1018.1 1017.5
ЮЗ 6 18 км н/о +22.1 +14.0 60 +25 +25 комфорт 1018.3 1017.7
ЮЗ 5 60 км 9/0
[Ci fib]
+21.8 +13.5 59 +25 +25 комфорт 1018.4 1017.8 +24.9
З 5 60 км 9/0
[Ci fib]
+20.4 +14.0 67 +23 +23 комфорт 1019.0 1018.4
З 7 19 км н/о +19.5 +14.1 71 +21 +21 комфорт 1019.5 1018.9
З 8 18 км н/о +19.1 +15.2 78 +20 +20 тепло 1019.7 1019.1
З 7 21 км н/о +19.1 +15.0 77 +20 +20 тепло 1020.0 1019.4
З 8 18 км н/о +18.7 +15.6 82 +19 +19 тепло 1019.9 1019.3
З 8 17 км н/о +18.6 +15.8 84 +19 +19 тепло 1019.4 1018.8
З 7 17 км н/о +18.7 +15.9 84 +19 +19 тепло 1019.3 1018.7
ЮЗ 5 17 км н/о +18.7 +15.7 83 +19 +19 тепло 1019.1 1018.5
ЮЗ 6 18 км н/о +18.9 +15.7 82 +20 +20 тепло 1018.5 1017.9
З 5 18 км н/о +18.9 +15.5 81 +20 +20 тепло 1018.1 1017.5
З 5 25 км 4/0
[Ci fib]
+18.8 +15.8 83 +20 +20 тепло 1018.2 1017.6
З 5 30 км 4/1 600 м
[Sc Ci fib]
+18.3 +16.3 88 +18 +18 тепло 1018.4 1017.9 +18.3
ЮЗ 4 50 км 5/1 540 м
[Sc Ci fib]
+20.9 +16.2 74 +24 +26 комфорт 1019.2 1018.6
З 5 50 км 5/1 600 м
[Sc Ci fib]
+22.4 +16.3 68 +27 +29 душно 1019.2 1018.6
З 6 50 км 6/1 660 м
[Sc Ci fib]
+23.0 +16.5 67 +28 +31 душно 1019.0 1018.4
З 5 60 км 6/1 840 м
[Cu hum Ci fib]
+24.7 +16.4 60 +28 +32 душно 1018.3 1017.7
ЮЗ 4 60 км 8/1 900 м
[Cu hum Ci fib]
+25.5 +16.6 58 +29 +34 душно 1017.4 1016.8
ЮЗ 4 60 км 8/1 960 м
[Cu hum Ci fib]
+25.4 +16.8 59 +29 +33 душно 1016.7 1016.1
З 5 60 км 9/1 1050 м
[Cu hum Ci fib]
+25.7 +16.4 56 +29 +31 душно 1016.3 1015.7
ЮЗ 4 60 км 8/1 1050 м
[Cu hum Ci fib]
+25.8 +16.6 57 +29 +31 душно 1015.8 1015.3
ЮЗ 4 60 км 9/1 1050 м
[Cu hum Ci fib]
+24.8 +17.0 62 +29 +29 душно 1015.6 1015.1
З 7 60 км 9/1 750 м
[Sc diur, vesp Ci fib]
+21.6 +17.0 75 +26 +26 душно 1015.6 1015.0 +26.4
З 6 60 км 3/0
[Ci fib]
+21.1 +16.9 77 +25 +25 комфорт 1016.2 1015.6
З 5 60 км 1/0
[Ci fib]
+20.2 +16.9 81 +23 +23 комфорт 1016.5 1015.9
З 7 16 км н/о +19.8 +17.2 85 +22 +22 комфорт 1016.5 1015.9
З 6 17 км н/о +20.0 +17.5 86 +23 +23 комфорт 1016.2 1015.6
З 7 15 км н/о +19.9 +17.5 86 +22 +22 комфорт 1015.5 1014.9
З 8 17 км н/о +19.8 +17.4 86 +22 +22 комфорт 1015.1 1014.5
З 7 18 км н/о +19.6 +17.4 87 +21 +21 комфорт 1014.6 1014.0
З 7 19 км н/о +19.6 +16.9 84 +21 +21 комфорт 1014.1 1013.5
СЗ 3 30 км 1/1 360 м
[St]
+19.5 +16.3 82 +22 +22 комфорт 1013.8 1013.2
З 4 30 км 1/1 360 м
[St]
+19.5 +15.7 79 +21 +21 комфорт 1013.8 1013.2
СЗ 3 30 км 4/4 540 м
[Sc]
+19.1 +15.4 79 +21 +21 комфорт 1014.0 1013.4 +19.1
З 4 40 км 8/8 540 м
[Sc]
+18.9 +16.0 83 +20 +20 тепло 1013.9 1013.3
З 3 40 км 9/9 540 м
[Sc]
+19.1 +16.1 83 +21 +21 комфорт 1014.1 1013.5
ЮЗ 2 50 км 6/3 1500 м
[Sc Ci fib]
+21.3 +14.6 66 +24 +26 комфорт 1014.1 1013.5
Ю 5 40 км 8/6 600 м
[Sc Ci fib]
+21.3 +16.5 74 +25 +26 комфорт 1014.1 1013.5
Ю 5 50 км 9/6 360 м
[Sc Ci fib]
+21.1 +17.6 80 +25 +26 комфорт 1013.9 1013.3
ЮЗ 5 40 км 8/5 400 м
[Cu Sc Ci fib]
+22.1 +17.4 75 +27 +29 душно 1013.2 1012.6
ЮЗ 6 40 км 9/9 600 м
[Cu Sc Ci fib]
+22.6 +17.1 71 +27 +28 душно 1012.5 1011.9
ЮЗ 5 35 км 9/8 540 м
[Cu Sc Ac lent Ci fib]
+22.1 +17.0 73 +27 +27 душно 1011.8 1011.3
З 7 40 км 9/8 540 м
[Cu hum Ac As Ci fib]
+22.5 +17.1 72 +27 +27 душно 1011.4 1010.8
ЮЗ 6 40 км 9/5 720 м
[Cu Sc Ac As Cs]
+22.2 +16.8 71 +27 +27 душно 1010.8 1010.2
ЮЗ 6 40 км 9/4 720 м
[Cu Sc Ac trans Ci fib]
+22.2 +16.6 71 +27 +27 душно 1010.3 1009.7
ЮЗ 5 40 км 6/3 720 м
[Cu Sc Ac trans Ci fib]
+21.7 +16.5 72 +26 +26 душно 1010.2 1009.6 +23.1
ЮЗ 5 40 км 6/3 720 м
[Cu Sc Ac trans Ci fib]
+21.2 +16.8 76 +25 +25 комфорт 1010.6 1010.0
ЮЗ 6 35 км 6/6 660 м
[Cu Sc]
+21.1 +17.8 81 +25 +25 комфорт 1010.3 1009.7
ЮЗ 8 14 км н/о +20.4 +18.4 88 +24 +24 комфорт 1010.1 1009.5
ЮЗ 10
{16}
16 км н/о +20.2 +17.9 87 +23 +23 комфорт 1010.2 1009.6
З 9
{13}
17 км н/о +19.1 +16.6 85 +20 +20 тепло 1010.4 1009.8
ЮЗ 6 5000 м н/о +18.5 +16.9 90 +19 +19 тепло 1010.9 1010.3 3
З 8
{13}
20 км н/о +17.7 +13.8 78 +17 +17 тепло 1010.8 1010.2
З 9
{13}
20 км н/о +17.3 +13.3 77 +16 +16 тепло 1011.0 1010.4
З 6 19 км н/о +17.0 +13.1 78 +16 +16 тепло 1010.7 1010.1
З 6 22 км н/о +16.0 +12.7 81 +15 +15 тепло 1011.3 1010.7
ЮЗ 5 8000 м дождь 10/10 400 м
[Sc]
+15.2 +12.2 82 +14 +14 тепло 1012.1 1011.5
Ю 3 30 км в посл. час дождь 6/4 400 м
[Sc Ac cuf]
+15.2 +12.8 86 +14 +14 тепло 1012.3 1011.7 +15.0 8
З 4 40 км 4/3 400 м
[Sc diur, vesp Ac cuf]
+15.7 +12.8 83 +15 +15 тепло 1012.9 1012.3
З 4 50 км 3/1 420 м
[Sc diur, vesp Ac cuf]
+16.2 +13.4 83 +15 +16 тепло 1013.8 1013.2
З 6 40 км 3/1 600 м
[Cu med, cong Ac cuf]
+16.7 +12.7 77 +16 +17 тепло 1014.5 1013.9
З 4 40 км 3/3 660 м
[Cu hum Ac cuf]
+17.7 +12.3 71 +17 +20 тепло 1014.7 1014.1
З 5 50 км 3/3 750 м
[Cu hum]
+18.5 +12.1 66 +19 +22 тепло 1014.9 1014.3
З 6 50 км 3/1 900 м
[Cu hum Ac trans]
+19.0 +11.2 61 +19 +23 тепло 1014.8 1014.2
З 5 50 км 3/1 1020 м
[Cu hum Ac trans Ci fib]
+20.0 +11.1 57 +21 +25 комфорт 1014.3 1013.8
З 5 50 км 3/1 1110 м
[Cu hum Ac trans Ci fib]
+20.3 +11.2 56 +22 +25 комфорт 1014.2 1013.6
З 5 50 км 4/1 1200 м
[Cu hum Ac trans Ci fib]
+20.3 +10.0 52 +22 +24 комфорт 1014.4 1013.8
З 7 50 км 4/1 1200 м
[Cu hum Ac trans Ci fib]
+19.9 +11.2 57 +21 +22 комфорт 1014.7 1014.1
З 6 50 км 3/1 1200 м
[Cu hum Ci fib]
+19.9 +9.1 50 +21 +21 комфорт 1014.8 1014.2
З 6 50 км 1/1 1200 м
[Cu hum Ci fib]
+18.6 +10.4 59 +19 +19 тепло 1015.6 1015.0 +21.0
З 5 50 км 1/1 600 м
[Cu hum Ci fib]
+18.0 +11.1 64 +18 +18 тепло 1016.2 1015.6
З 5 50 км 1/1 600 м
[Sc]
+17.3 +11.2 67 +17 +17 тепло 1016.3 1015.7
ЮЗ 3 20 км н/о +17.2 +11.0 67 +17 +17 тепло 1016.9 1016.3
З 2 20 км н/о +16.1 +11.3 73 +16 +16 тепло 1017.1 1016.5
З 2 22 км н/о +16.1 +10.7 70 +16 +16 тепло 1017.0 1016.4
З 3 22 км н/о +15.7 +10.8 73 +15 +15 тепло 1016.8 1016.2
З 3 20 км н/о +14.6 +11.1 80 +14 +14 тепло 1016.8 1016.2
З 2 21 км н/о +14.5 +10.9 79 +14 +14 тепло 1016.7 1016.1
З 2 21 км н/о +13.9 +10.9 82 +13 +13 тепло 1016.5 1015.9
З 3 20 км н/о +13.7 +11.4 86 +12 +12 тепло 1016.3 1015.7
З 3 25 км ясно +13.7 +10.6 82 +13 +13 тепло 1016.3 1015.7
ЮЗ 3 25 км ясно +13.7 +10.7 82 +13 +13 тепло 1016.5 1015.9 +13.5
З 3 50 км 1/1 750 м
[Cu med, cong Ci ing]
+13.0 +10.7 86 +12 +12 тепло 1016.8 1016.2
З 2 50 км 1/1 600 м
[Cu Sc]
+14.2 +11.3 83 +14 +14 тепло 1017.4 1016.8
З 2 50 км 1/1 750 м
[Cu Sc Ci ing]
+15.6 +11.0 74 +16 +19 тепло 1017.6 1017.0
З 2 50 км 3/3 750 м
[Cu med, cong]
+16.8 +11.4 70 +17 +17 тепло 1017.7 1017.1
Ю 1 50 км 3/3 900 м
[Cu med, cong Ci fib]
+19.7 +10.4 55 +22 +29 комфорт 1017.4 1016.8
Ю 3 50 км 4/4 900 м
[Cu med, cong Ci fib]
+19.4 +10.9 58 +21 +25 комфорт 1016.9 1016.3
Ю 3 50 км 4/3 1000 м
[Cu hum Ac trans Ci fib]
+20.1 +10.9 55 +22 +27 комфорт 1016.2 1015.6
Ю 3 50 км 3/3 1050 м
[Cu med, cong Ac trans Ci fib]
+20.7 +10.0 50 +23 +28 комфорт 1015.6 1015.0
ЮВ 4 50 км 4/3 1050 м
[Cu med, cong Ac trans Ci fib]
+20.9 +10.2 50 +23 +25 комфорт 1015.3 1014.7
Ю 3 50 км 4/3 1050 м
[Cu med, cong Ac trans Ci sp]
+20.0 +10.5 54 +22 +23 комфорт 1015.2 1014.6
Ю 3 50 км осадки на расстоянии 5/3 1050 м
[Cu med, cong Ac trans Ci sp]
+19.7 +10.7 56 +21 +21 комфорт 1015.3 1014.7
Ю 3 50 км осадки на расстоянии 6/4 750 м
[Cb calv Ci sp]
+19.0 +11.4 61 +20 +20 тепло 1015.6 1015.0 +21.4
Ю 1 50 км 5/1 900 м
[Cu Sc Ci sp]
+18.4 +11.6 65 +20 +20 тепло 1015.7 1015.1
З 2 50 км 4/0
[Ci sp]
+16.5 +11.0 70 +17 +17 тепло 1015.9 1015.3
Местоположение метеостанции Гибралтар (Гибралтар): широта 36.15 долгота -5.35 высота над уровнем моря 5 м.
В архиве по умолчанию представлена погода Гибралтаре за последнюю неделю. Архивные данные за месяц целиком и за предыдущие месяцы, начиная с января 2011 года, Вы можете получить, выбрав интересующий диапазон дат из раскрывающегося списка и нажав кнопку "Найти!".
*Определитесь, кто Вы:
Внимание! Время в таблицах - всемирное. Для получения местного времени необходимо прибавить поправку, которая равна 1 ч.
Смотрите также архив погоды в соседних городах и на ближайших метеорологических станциях:
Партнеры нашего сайта:      
Пояснения к столбцам:
  • Ветер - указаны скорость ветра в м/с - средняя за 10 мин, порывы в срок и между сроками (в фигурных скобках) и направление, откуда дует ветер: С - северный,
  • СВ - северо-восточный, В - восточный, ЮВ - юго-восточный, Ю - южный, ЮЗ - юго-западный, З - западный, СЗ - северо-западный.
  • Видимость - горизонтальная дальность видимости в метрах или километрах. При видимости от 1 до 10 км при отсутствии осадков обычно наблюдается дымка, при ухудшении видимости до 1 км и менее - туман. В сухую погоду видимость может ухудшаться дымом, пылью или мглою.
  • Явления - указаны атмосферные явления, наблюдавшиеся в срок или в последний час перед сроком; фигурными скобками обозначены явления, наблюдавшиеся между сроками (за 1-3 часа до срока); квадратными скобками обозначены град или гололедные отложения с указанием их диаметра в мм.
  • Облачность - указаны через наклонную черту общая и нижняя облачность в баллах и высота нижней границы облаков в метрах; квадратными скобками обозначены формы облаков: Ci - перистые, Cs - перисто-слоистые, Cc - перисто-кучевые, Ac - высококучевые, As - высокослоистые, Sc - слоисто-кучевые, Ns - слоисто-дождевые, Cu - кучевые, Cb - кучево-дождевые. Подробнее классификацию облаков см. в Атласе облаков (PDF).
  • T - Температура воздуха - температура, измеренная на высоте 2 м над землей.
  • Td - Температура точки росы - температура, при понижении до которой содержащийся в воздухе водяной пар достигнет насыщения.
  • f - Относительная влажность воздуха - влажноcть воздуха, измеренная на высоте 2 м над землей.
  • Te - Эффективная температура - температура, которую ощущает одетый по сезону человек в тени. Характеристика душности погоды. При расчете учитывается влияние влажности воздуха и скорости ветра на теплоощущения человека.
  • Tes - Эффективная температура на солнце - температура, которую ощущает человек, с поправкой на солнечный нагрев. Характеристика знойности погоды. Зависит от высоты солнца над горизонтом, облачности и скорости ветра. Ночью, в пасмурную погоду, а также при ветре 12 м/с и более поправка равна нулю.
  • P - Атмосферное давление - приведенное к уровню моря атмосферное давление.
  • Po - Атмосферное давление - измеренное на уровне метеостанции атмосферное давление.
  • Tmin - Минимальная температура - минимум температуры воздуха на высоте 2 м над землей.
  • Tmax - Максимальная температура - максимум температуры воздуха на высоте 2 м над землей.
  • R - Количество осадков - Количество выпавших осадков за период времени, мм. При наведении курсора мыши на число - период времени, за который выпало указанное количество осадков.
  • R24 - Количество осадков - Количество выпавших осадков за 24 часа, мм.
  • S - Снежный покров - Высота снежного покрова, см. При наведении курсора мыши на число - состояние снежного покрова и степень покрытия местности в баллах.